Bormio, Italy 16 day weather forecast

Slopes altitude range 1225 m - 3010m

Number of lifts: 31 Pistes: 98km

In some cases the lift and piste totals shown are for the ski domain (e.g. Three Valleys) rather than individual resort (e.g. Courchevel)

Overview

The 16 day weather forecast is fully updated 4 times every day.

    • Sat 20 OCT 2018
    • Sat 20
    • 1C 10C
    • Sun 21 OCT 2018
    • Sun 21
    • 0C 8C
    • Mon 22 OCT 2018
    • Mon 22
    • -2C 8C
    • Tue 23 OCT 2018
    • Tue 23
    • -3C 7C
    • Wed 24 OCT 2018
    • Wed 24
    • -1C 7C
    • Thu 25 OCT 2018
    • Thu 25
    • -2C 11C
    • Fri 26 OCT 2018
    • Fri 26
    • 0C 8C
    • Sat 27 OCT 2018
    • Sat 27
    • -3C 2C
    • Sun 28 OCT 2018
    • Sun 28
    • -12C -6C
    • Mon 29 OCT 2018
    • Mon 29
    • -6C -2C
    • Tue 30 OCT 2018
    • Tue 30
    • -2C 2C
    • Wed 31 OCT 2018
    • Wed 31
    • 2C 4C
    • Thu 01 NOV 2018
    • Thu 01
    • 1C 4C
    • Fri 02 NOV 2018
    • Fri 02
    • -4C -3C
    • Sat 03 NOV 2018
    • Sat 03
    • -10C -2C
    • Sun 04 NOV 2018
    • Sun 04
    • -9C 1C

Date:

Time Type 0°C level Temp Chill Snow Cloud Speed Gust Dir Press
12:00 3280m 10°C 10_4 0cm 56% 4mph 5mph 1024mB
15:00 3284m 10°C 10_4 0cm 0% 4mph 6mph 1024mB
18:00 3322m 10°C 10_6 0cm 0% 6mph 7mph 1026mB
21:00 2904m 0°C 0_6 0cm 4% 6mph 7mph 1026mB
0:00 2853m 0°C 0_6 0cm 33% 6mph 7mph 1026mB
3:00 3035m 0°C 0_6 0cm 72% 6mph 8mph 1024mB
6:00 2998m 0°C 0_7 0cm 49% 7mph 8mph 1024mB
9:00 3175m 0°C 0_9 0cm 0% 9mph 12mph 1022mB
12:00 3078m 8°C 8_9 0cm 0% 9mph 12mph 1021mB
15:00 2928m 8°C 8_8 0cm 0% 8mph 11mph 1021mB
18:00 2168m 8°C 8_5 0cm 0% 5mph 6mph 1024mB
21:00 1959m -3°C -3_4 0cm 1% 4mph 5mph 1025mB
0:00 1946m -3°C -3_3 0cm 1% 3mph 4mph 1025mB
3:00 2002m -3°C -3_4 0cm 0% 4mph 5mph 1024mB
6:00 2002m -3°C -3_4 0cm 0% 4mph 5mph 1024mB
9:00 2849m -2°C -2_4 0cm 0% 4mph 6mph 1023mB
12:00 3044m 8°C 8_5 0cm 0% 5mph 7mph 1022mB
15:00 2982m 8°C 8_7 0cm 0% 7mph 9mph 1022mB
18:00 2132m 8°C 8_7 0cm 0% 7mph 8mph 1026mB
21:00 1891m -3°C -3_7 0cm 0% 7mph 8mph 1028mB
0:00 1820m -4°C -4_6 0cm 5% 6mph 7mph 1028mB
3:00 1911m -3°C -3_6 0cm 55% 6mph 8mph 1027mB
6:00 1920m -3°C -3_7 0cm 28% 7mph 9mph 1028mB
9:00 2690m -3°C -3_8 0cm 27% 8mph 10mph 1026mB
12:00 2917m 7°C 7_8 0cm 55% 8mph 10mph 1024mB
15:00 2825m 7°C 7_8 0cm 76% 8mph 11mph 1023mB
18:00 2114m 7°C 7_8 0cm 77% 8mph 10mph 1025mB
21:00 2026m -2°C -2_8 0cm 79% 8mph 10mph 1026mB
0:00 2434m -2°C -2_9 0cm 60% 9mph 13mph 1024mB
3:00 2548m 0°C 0_10 1cm 94% 10mph 15mph 1023mB
6:00 2149m -2°C -2_9 1cm 55% 9mph 13mph 1022mB
9:00 3014m -1°C -1_12 0cm 20% 12mph 16mph 1022mB
12:00 3033m 7°C 7_12 0cm 10% 12mph 16mph 1021mB
15:00 2950m 7°C 7_11 0cm 2% 11mph 16mph 1020mB
18:00 2791m 7°C 7_10 0cm 2% 10mph 15mph 1022mB
21:00 2594m 0°C 0_9 0cm 4% 9mph 12mph 1023mB
0:00 2405m -1°C -1_8 0cm 5% 8mph 10mph 1023mB
3:00 2159m -1°C -1_7 0cm 69% 7mph 9mph 1023mB
6:00 2017m -2°C -2_6 0cm 74% 6mph 7mph 1023mB
9:00 3757m -2°C -2_5 0cm 73% 5mph 7mph 1021mB
12:00 3751m 11°C 11_3 0cm 71% 3mph 4mph 1019mB
15:00 3779m 11°C 11_3 0cm 69% 3mph 4mph 1018mB
18:00 3551m 11°C 11_4 0cm 61% 4mph 5mph 1019mB
21:00 3043m 0°C 0_3 0cm 44% 3mph 4mph 1019mB
0:00 3062m 0°C 0_3 0cm 38% 3mph 4mph 1018mB
3:00 3008m 0°C 0_3 0cm 0% 3mph 4mph 1017mB
6:00 2956m 0°C 0_3 0cm 2% 3mph 4mph 1016mB
9:00 3602m 0°C 0_5 0cm 36% 5mph 6mph 1014mB
12:00 3125m 8°C 8_7 0cm 18% 7mph 7mph 1012mB
15:00 3000m 8°C 8_7 0cm 35% 7mph 8mph 1011mB
18:00 2715m 8°C 8_6 0cm 38% 6mph 8mph 1011mB
21:00 2581m 1°C 1_6 1cm 94% 6mph 7mph 1011mB
0:00 2534m 1°C 1_6 1cm 92% 6mph 8mph 1008mB
3:00 2502m 0°C 0_5 1cm 96% 5mph 7mph 1006mB
6:00 2665m 0°C 0_9 1cm 97% 9mph 14mph 1005mB
9:00 2558m 1°C 1_6 4cm 100% 6mph 9mph 1005mB
12:00 2012m 2°C 2_7 6cm 100% 7mph 10mph 1006mB
15:00 1417m -2°C -2_7 6cm 100% 7mph 10mph 1006mB
18:00 1373m -2°C -2_7 6cm 100% 7mph 11mph 1008mB
21:00 1136m -9°C -9_9 5cm 100% 9mph 12mph 1010mB
0:00 965m -10°C -10_8 5cm 100% 8mph 11mph 1010mB
3:00 846m -11°C -11_6 2cm 100% 6mph 7mph 1010mB
6:00 747m -12°C -12_3 1cm 99% 3mph 3mph 1011mB
9:00 1149m -12°C -12_4 1cm 99% 4mph 4mph 1011mB
12:00 1496m -6°C -6_5 1cm 99% 5mph 5mph 1011mB
15:00 1412m -6°C -6_4 3cm 100% 4mph 5mph 1011mB
18:00 1105m -6°C -6_5 4cm 100% 5mph 7mph 1014mB
21:00 1063m -10°C -10_4 4cm 100% 4mph 4mph 1015mB
0:00 1210m -10°C -10_5 3cm 100% 5mph 6mph 1015mB
3:00 1435m -8°C -8_7 2cm 100% 7mph 8mph 1015mB
6:00 1493m -8°C -8_8 1cm 100% 8mph 10mph 1016mB
9:00 1927m -6°C -6_8 3cm 100% 8mph 10mph 1017mB
12:00 2187m -2°C -2_9 3cm 100% 9mph 11mph 1017mB
15:00 2114m -2°C -2_9 4cm 100% 9mph 10mph 1018mB
18:00 1867m -2°C -2_12 2cm 99% 12mph 14mph 1021mB
21:00 1890m -4°C -4_12 1cm 99% 12mph 14mph 1023mB
0:00 1811m -5°C -5_11 0cm 96% 11mph 12mph 1024mB
3:00 1692m -5°C -5_7 0cm 100% 7mph 8mph 1025mB
6:00 1805m -5°C -5_4 0cm 100% 4mph 5mph 1026mB
Afternoon 0.0885417mm 0 3012m 2°C 2_10 0cm 100% 10mph 13mph 1024mB
Morning 0.015625mm 0 3468m -1°C -1_12 0cm 66% 12mph 17mph 1020mB
Afternoon 0.369792mm 0 3573m 4°C 4_13 0cm 100% 13mph 17mph 1012mB
Morning 1.70312mm 0.9375 3100m 3°C 3_11 0cm 100% 11mph 16mph 1008mB
Afternoon 0.583333mm 1 2384m 4°C 4_3 8cm 84% 3mph 5mph 1013mB
Morning 1.78125mm 0.0625 1585m -4°C -4_10 14cm 100% 10mph 14mph 1020mB
Afternoon 0.671875mm 0.0625 1499m -3°C -3_10 5cm 100% 10mph 14mph 1025mB
Morning 0.135417mm 0 952m -8°C -8_5 1cm 98% 5mph 6mph 1029mB
Afternoon 0.0104167mm 0 584m -2°C -2_3 0cm 67% 3mph 3mph 1027mB
Morning 0mm 0 715m -10°C -10_4 0cm 20% 4mph 4mph 1025mB
Afternoon 0mm 0 1427m 1°C 1_7 0cm 79% 7mph 7mph 1021mB
Morning 0mm 0 1247m -6°C -6_4 0cm 10% 4mph 4mph 1018mB

16 day outlook at a glance

Forecast issued: 21/10/2018 02:18:26

Chat

Your comments and questions. In a resort? Let us know what it's like!


Characters left 250

For terms and conditions see Readers Comments on the Cookie and privacy policy page.